Weather History for Athens Eleftherios, Greece

Change the Weather History Date:

Friday, December 7, 2012

  Actual Average (LGEL) Record (LGEL)
Temperature  
Mean Temperature 46 °F -  
Max Temperature 57 °F 56 °F 68 °F (2004)
Min Temperature 35 °F 45 °F 41 °F (2012)
Degree Days  
Heating Degree Days 19    
Moisture  
Dew Point 36 °F    
Average Humidity 59    
Maximum Humidity 87    
Minimum Humidity 36    
Precipitation  
Precipitation 0.00 in - - ()
Sea Level Pressure  
Sea Level Pressure 29.87 in    
Wind  
Wind Speed 7 mph ()    
Max Wind Speed 16 mph    
Max Gust Speed -    
Visibility 6.2 miles    
Events      
Averages and records for this station are not official NWS values.
T = Trace of Precipitation, MM = Missing Value Source: Averaged Metar Reports

Daily Weather History Graph

Daily Weather History Graph

Search for Another Location

Airport:

Trip Planner

Search our weather history database for the weather conditions in past years. The results will help you decide how hot, cold, wet, or windy it might be!

Date:

Astronomy

Dec. 07, 2012 Rise Set
Actual Time 7:26 AM EET 5:04 PM EET
Civil Twilight 6:57 AM EET 5:33 PM EET
Nautical Twilight 6:24 AM EET 6:06 PM EET
Astronomical Twilight 5:52 AM EET 6:38 PM EET
Moon 12:31 AM EET (12/7) 12:46 PM EET (12/7)
Length of Visible Light 10h 36m
Length of Day
9h 37m
Last Quarter, 42% of the Moon is Illuminated
Dec 7
Last Quarter
Dec 13
New
Dec 20
First Quarter
Dec 28
Full
Jan 5
Last Quarter

Hourly Weather History & Observations

Time (EET) Temp. Windchill Dew Point Humidity Pressure Visibility Wind Dir Wind Speed Gust Speed Precip Events Conditions
12:20 AM 51.8 °F - 39.2 °F 62% 29.74 in 6.2 mi West 8.1 mph - N/A   Scattered Clouds
12:50 AM 51.8 °F - 39.2 °F 62% 29.74 in 6.2 mi West 11.5 mph - N/A   Scattered Clouds
1:20 AM 50.0 °F - 39.2 °F 66% 29.74 in 6.2 mi WNW 10.4 mph - N/A   Partly Cloudy
1:50 AM 50.0 °F - 39.2 °F 66% 29.74 in 6.2 mi West 11.5 mph - N/A   Mostly Cloudy
2:20 AM 51.8 °F - 39.2 °F 62% 29.74 in 6.2 mi WSW 10.4 mph - N/A   Scattered Clouds
2:50 AM 51.8 °F - 39.2 °F 62% 29.74 in 6.2 mi West 13.8 mph - N/A   Scattered Clouds
3:20 AM 51.8 °F - 37.4 °F 58% 29.74 in 6.2 mi WNW 16.1 mph - N/A   Partly Cloudy
3:50 AM 50.0 °F - 37.4 °F 62% 29.74 in 6.2 mi West 12.7 mph - N/A   Partly Cloudy
4:20 AM 50.0 °F - 37.4 °F 62% 29.74 in 6.2 mi West 11.5 mph - N/A   Partly Cloudy
4:50 AM 50.0 °F - 39.2 °F 66% 29.74 in 6.2 mi West 8.1 mph - N/A   Partly Cloudy
5:20 AM 50.0 °F - 37.4 °F 62% 29.77 in 6.2 mi WNW 6.9 mph - N/A   Partly Cloudy
5:50 AM 50.0 °F - 35.6 °F 58% 29.77 in 6.2 mi West 9.2 mph - N/A   Partly Cloudy
6:20 AM 48.2 °F - 37.4 °F 66% 29.77 in 6.2 mi NW 5.8 mph - N/A   Scattered Clouds
6:50 AM 48.2 °F - 37.4 °F 66% 29.80 in 6.2 mi Variable 2.3 mph - N/A   Scattered Clouds
7:20 AM 48.2 °F - 37.4 °F 66% 29.80 in 6.2 mi North 4.6 mph - N/A   Scattered Clouds
7:50 AM 46.4 °F - 37.4 °F 71% 29.80 in 6.2 mi Variable 2.3 mph - N/A   Scattered Clouds
8:20 AM 48.2 °F - 37.4 °F 66% 29.83 in 6.2 mi Variable 3.5 mph - N/A   Partly Cloudy
8:50 AM 50.0 °F - 39.2 °F 66% 29.83 in 6.2 mi Calm Calm - N/A   Partly Cloudy
9:20 AM 51.8 °F - 37.4 °F 58% 29.83 in 6.2 mi North 5.8 mph - N/A   Partly Cloudy
9:50 AM 51.8 °F - 35.6 °F 54% 29.83 in 6.2 mi WNW 5.8 mph - N/A   Partly Cloudy
10:20 AM 55.4 °F - 35.6 °F 47% 29.86 in 6.2 mi West 4.6 mph - N/A   Partly Cloudy
10:50 AM 55.4 °F - 35.6 °F 47% 29.89 in 6.2 mi WNW 9.2 mph - N/A   Partly Cloudy
11:20 AM 55.4 °F - 35.6 °F 47% 29.89 in 6.2 mi NW 5.8 mph - N/A   Scattered Clouds
11:50 AM 57.2 °F - 32.0 °F 38% 29.89 in 6.2 mi WNW 9.2 mph - N/A   Scattered Clouds
12:20 PM 57.2 °F - 32.0 °F 38% 29.89 in 6.2 mi NW 10.4 mph - N/A   Scattered Clouds
12:50 PM 57.2 °F - 30.2 °F 36% 29.86 in 6.2 mi West 10.4 mph - N/A   Scattered Clouds
1:20 PM 57.2 °F - 32.0 °F 38% 29.89 in 6.2 mi WNW 9.2 mph - N/A   Scattered Clouds
1:50 PM 55.4 °F - 32.0 °F 41% 29.89 in 6.2 mi NW 8.1 mph - N/A   Mostly Cloudy
2:20 PM 55.4 °F - 33.8 °F 44% 29.89 in 6.2 mi West 5.8 mph - N/A   Mostly Cloudy
2:50 PM 55.4 °F - 33.8 °F 44% 29.89 in 6.2 mi NNE 6.9 mph - N/A   Mostly Cloudy
3:20 PM 53.6 °F - 35.6 °F 51% 29.92 in 6.2 mi NNE 10.4 mph - N/A   Scattered Clouds
3:50 PM 53.6 °F - 33.8 °F 47% 29.92 in 6.2 mi North 11.5 mph - N/A   Scattered Clouds
4:20 PM 53.6 °F - 35.6 °F 51% 29.92 in 6.2 mi NNE 11.5 mph - N/A   Partly Cloudy
4:50 PM 51.8 °F - 35.6 °F 54% 29.92 in 6.2 mi NNE 9.2 mph - N/A   Partly Cloudy
5:20 PM 50.0 °F - 35.6 °F 58% 29.92 in 6.2 mi NNE 8.1 mph - N/A   Partly Cloudy
5:50 PM 46.4 °F 43.5 °F 35.6 °F 66% 29.95 in 6.2 mi North 5.8 mph - N/A   Partly Cloudy
6:20 PM 50.0 °F - 33.8 °F 54% 29.95 in 6.2 mi North 3.5 mph - N/A   Partly Cloudy
6:50 PM 46.4 °F 45.2 °F 33.8 °F 62% 29.95 in 6.2 mi West 3.5 mph - N/A   Partly Cloudy
7:20 PM 46.4 °F 44.3 °F 33.8 °F 62% 29.98 in 6.2 mi WSW 4.6 mph - N/A   Partly Cloudy
7:50 PM 44.6 °F 43.1 °F 33.8 °F 66% 29.98 in 6.2 mi WSW 3.5 mph - N/A   Partly Cloudy
8:20 PM 44.6 °F - 33.8 °F 66% 29.98 in 6.2 mi Variable 1.2 mph - N/A   Scattered Clouds
8:50 PM 44.6 °F 43.1 °F 33.8 °F 66% 29.98 in 6.2 mi West 3.5 mph - N/A   Partly Cloudy
9:20 PM 42.8 °F - 33.8 °F 70% 29.98 in 6.2 mi Variable 1.2 mph - N/A   Partly Cloudy
9:50 PM 42.8 °F - 33.8 °F 70% 30.01 in 6.2 mi SW 2.3 mph - N/A   Partly Cloudy
10:20 PM 42.8 °F - 32.0 °F 66% 30.01 in 6.2 mi West 2.3 mph - N/A   Partly Cloudy
10:50 PM 37.4 °F 34.9 °F 33.8 °F 87% 30.01 in 6.2 mi Variable 3.5 mph - N/A   Partly Cloudy
11:20 PM 35.6 °F - 32.0 °F 87% 30.01 in 6.2 mi Variable 2.3 mph - N/A   Partly Cloudy
11:50 PM 37.4 °F - 33.8 °F 87% 30.01 in 6.2 mi Variable 2.3 mph - N/A   Partly Cloudy